Regional Weather Roundup
Issued by NWS Bismarck, ND

Home | Current Version | Previous Version | Text Only | Print | Product List | Glossary On
Versions: 1 2 3 4 5 6 7 8 9 10 11 12 13 14 15 16 17 18 19 20 21 22 23 24 25 26 27 28 29 30 31 32 33 34 35 36 37 38 39 40 41 42 43 44 45 46 47 48 49 50
000
ASUS43 KBIS 222202
RWRBIS

NWR BROADCAST TEXT
NATIONAL WEATHER SERVICE BISMARCK ND
500 PM CDT MON MAY 22 2017

NOTE: "FAIR" INDICATES FEW OR NO CLOUDS BELOW 12,000 FEET WITH NO
SIGNIFICANT WEATHER AND/OR OBSTRUCTIONS TO VISIBILITY.


CITY           SKY/WX    TMP DP  RH WIND       PRES   REMARKS
WILLISTON      PTSUNNY   66  34  30 N16       30.06S
MINOT          CLOUDY    61  37  41 N17       29.97F
MINOT AFB      CLOUDY    61  36  39 N16       29.95F
BISMARCK       LGT RAIN  59  42  53 N14G22    29.99S
DICKINSON      FAIR      60  32  34 N18G24    30.03S
GARRISON         N/A     60  35  39 N17G32    29.99R
HETTINGER ARPT PTSUNNY   60  33  36 N20G26    30.04S
JAMESTOWN      CLOUDY    54  40  59 N20       29.93R
HAZEN          MOCLDY    63  36  36 NW18      30.02S
LINTON         CLOUDY    57  45  62 N20G28    29.99R
MANDAN         MOCLDY    59  37  44 N15G23    29.99F
STANLEY        CLOUDY    61  32  33 N18G26    30.04S
TIOGA          FAIR      64  32  29 N14G23    30.05S
WATFORD CITY   MOCLDY    63  36  36 N14G23    30.04F
$$

CITY           SKY/WX    TMP DP  RH WIND       PRES   REMARKS
GRAND FORKS    RAIN      50  47  89 N13       29.87S FOG
GRAND FORKS AF LGT RAIN  51  45  82 N18       29.88S
DEVILS LAKE    LGT RAIN  52  44  74 N12       29.93S
FARGO          CLOUDY    54  44  69 N21       29.87S
CAVALIER         N/A     52  46  82 N17G28    29.89R
GRAFTON        LGT RAIN  48  48 100 N14G20    29.90S
GWINNER        CLOUDY    55  43  62 MISG      29.90R
LANGDON        CLOUDY    50  48  93 N15G24    29.93R
ROLLA          MOCLDY    59  30  33 N24G32    29.94R
$$

CITY           SKY/WX    TMP DP  RH WIND       PRES   REMARKS
ABERDEEN       CLOUDY    59  36  42 N16       29.91R
MOBRIDGE       CLOUDY    61  37  41 N22G28    29.94R
BUFFALO          N/A     61  39  44 N18G25    30.01R
RAPID CITY     LGT RAIN  53  44  71 NW26G32   30.07R
GLASGOW        PTSUNNY   67  32  27 N15       30.12R
SIDNEY         FAIR      65  35  33 N17G23    30.07F
WOLF POINT     PTSUNNY   69  33  26 NE21G26   30.11R
GLENDIVE       FAIR      61  40  45 VRB5      30.09F
MILES CITY     PTSUNNY   67  35  30 N20G29    30.11F
BAKER          PTSUNNY   56  39  53 N10       30.11R
$$

CITY           SKY/WX    TMP DP  RH WIND       PRES   REMARKS
BILLINGS       FAIR      68  35  29 NW12      30.17F
GREAT FALLS    PTSUNNY   67  35  30 NW8       30.21F
$$





USA.gov is the U.S. government's official web portal to all federal, state and local government web resources and services.